• In Latvia
  • List of Countries
  • For 7 days
  • Water Temperature
  • Satellite Maps
  • Weather Map
  • Weather Widgets
  • user-avatar
    Login

    Hourly Weather Koudougou

    Today, 18 February, Sunday

    Time Temperature Precipitation Wind Pressure Humidity
    00:00 +30°C° 0 mm 3 mps 730 mmHg 12%
    01:00 +29°C° 0 mm 3 mps 730 mmHg 12%
    02:00 +29°C° 0 mm 3 mps 730 mmHg 13%
    03:00 +28°C° 0 mm 3 mps 730 mmHg 13%
    04:00 +27°C° 0 mm 3 mps 730 mmHg 13%
    05:00 +27°C° 0 mm 3 mps 730 mmHg 14%
    06:00 +26°C° 0 mm 3 mps 730 mmHg 14%
    07:00 +28°C° 0 mm 3 mps 730 mmHg 12%
    08:00 +32°C° 0 mm 4 mps 731 mmHg 10%
    09:00 +35°C° 0 mm 5 mps 732 mmHg 8%
    10:00 +37°C° 0 mm 5 mps 731 mmHg 7%
    11:00 +40°C° 0 mm 5 mps 731 mmHg 7%
    12:00 +42°C° 0 mm 5 mps 731 mmHg 6%
    13:00 +43°C° 0 mm 4 mps 730 mmHg 6%
    14:00 +43°C° 0 mm 3 mps 729 mmHg 6%
    15:00 +43°C° 0 mm 3 mps 728 mmHg 6%
    16:00 +41°C° 0 mm 2 mps 728 mmHg 7%
    17:00 +39°C° 0 mm 2 mps 728 mmHg 7%
    18:00 +38°C° 0 mm 2 mps 728 mmHg 8%
    19:00 +36°C° 0 mm 2 mps 728 mmHg 9%
    20:00 +35°C° 0 mm 2 mps 729 mmHg 10%
    21:00 +32°C° 0 mm 2 mps 729 mmHg 11%
    22:00 +31°C° 0 mm 2 mps 729 mmHg 11%
    23:00 +31°C° 0 mm 2 mps 729 mmHg 12%

    Tomorrow, 19 February, Monday

    Time Temperature Precipitation Wind Pressure Humidity
    00:00 +30°C° 0 mm 2 mps 729 mmHg 12%
    01:00 +30°C° 0 mm 2 mps 729 mmHg 13%
    02:00 +29°C° 0 mm 2 mps 729 mmHg 13%
    03:00 +29°C° 0 mm 2 mps 728 mmHg 14%
    04:00 +28°C° 0 mm 2 mps 728 mmHg 15%
    05:00 +28°C° 0 mm 2 mps 729 mmHg 16%
    06:00 +27°C° 0 mm 2 mps 729 mmHg 17%
    07:00 +30°C° 0 mm 3 mps 730 mmHg 20%
    08:00 +33°C° 0 mm 3 mps 730 mmHg 22%
    09:00 +36°C° 0 mm 4 mps 731 mmHg 25%
    10:00 +37°C° 0 mm 4 mps 731 mmHg 25%
    11:00 +40°C° 0 mm 4 mps 730 mmHg 26%
    12:00 +41°C° 0 mm 5 mps 730 mmHg 27%
    13:00 +41°C° 0 mm 4 mps 729 mmHg 25%
    14:00 +41°C° 0 mm 4 mps 728 mmHg 24%
    15:00 +42°C° 0 mm 4 mps 727 mmHg 23%
    16:00 +40°C° 0 mm 3 mps 728 mmHg 24%
    17:00 +39°C° 0 mm 2 mps 728 mmHg 26%
    18:00 +38°C° 0 mm 2 mps 728 mmHg 27%
    19:00 +37°C° 0 mm 2 mps 728 mmHg 29%
    20:00 +36°C° 0 mm 2 mps 729 mmHg 31%
    21:00 +35°C° 0 mm 1 mps 730 mmHg 33%
    22:00 +35°C° 0 mm 2 mps 729 mmHg 34%
    23:00 +34°C° 0 mm 2 mps 729 mmHg 36%

    Day after tomorrow, 20 February, Tuesday

    Time Temperature Precipitation Wind Pressure Humidity
    00:00 +34°C° 0 mm 2 mps 729 mmHg 37%
    01:00 +32°C° 0 mm 2 mps 729 mmHg 39%
    02:00 +33°C° 0 mm 3 mps 728 mmHg 41%
    03:00 +31°C° 0 mm 3 mps 728 mmHg 43%
    04:00 +31°C° 0 mm 3 mps 728 mmHg 45%
    05:00 +30°C° 0 mm 3 mps 728 mmHg 46%
    06:00 +30°C° 0 mm 3 mps 728 mmHg 47%
    07:00 +33°C° 0 mm 4 mps 729 mmHg 44%
    08:00 +35°C° 0 mm 5 mps 730 mmHg 40%
    09:00 +38°C° 0 mm 6 mps 730 mmHg 36%
    10:00 +39°C° 0 mm 5 mps 730 mmHg 32%
    11:00 +41°C° 0 mm 5 mps 730 mmHg 28%
    12:00 +42°C° 0 mm 4 mps 730 mmHg 24%
    13:00 +42°C° 0.1 mm 4 mps 729 mmHg 25%
    14:00 +41°C° 0.1 mm 4 mps 728 mmHg 25%
    15:00 +40°C° 0.1 mm 3 mps 727 mmHg 26%
    16:00 +39°C° 0 mm 3 mps 727 mmHg 27%
    17:00 +38°C° 0 mm 3 mps 727 mmHg 29%
    18:00 +38°C° 0 mm 3 mps 727 mmHg 30%
    19:00 +37°C° 0 mm 3 mps 728 mmHg 33%
    20:00 +36°C° 0 mm 3 mps 728 mmHg 35%
    21:00 +35°C° 0 mm 3 mps 729 mmHg 37%
    22:00 +34°C° 0 mm 2 mps 729 mmHg 38%
    23:00 +34°C° 0 mm 2 mps 729 mmHg 39%

    21 February, Wednesday

    Time Temperature Precipitation Wind Pressure Humidity
    00:00 +32°C° 0 mm 2 mps 729 mmHg 41%
    01:00 +32°C° 0 mm 2 mps 728 mmHg 42%
    02:00 +31°C° 0 mm 2 mps 728 mmHg 43%
    03:00 +30°C° 0 mm 2 mps 728 mmHg 44%
    04:00 +30°C° 0 mm 2 mps 728 mmHg 45%
    05:00 +29°C° 0 mm 2 mps 728 mmHg 46%
    06:00 +28°C° 0 mm 2 mps 729 mmHg 47%
    07:00 +30°C° 0 mm 3 mps 729 mmHg 44%
    08:00 +33°C° 0 mm 4 mps 730 mmHg 42%
    09:00 +35°C° 0 mm 5 mps 730 mmHg 39%
    10:00 +36°C° 0 mm 5 mps 730 mmHg 33%
    11:00 +38°C° 0 mm 4 mps 730 mmHg 28%
    12:00 +41°C° 0 mm 4 mps 729 mmHg 22%
    13:00 +42°C° 0 mm 4 mps 728 mmHg 19%
    14:00 +42°C° 0 mm 4 mps 727 mmHg 17%
    15:00 +43°C° 0 mm 3 mps 726 mmHg 14%
    16:00 +42°C° 0 mm 3 mps 726 mmHg 14%
    17:00 +40°C° 0 mm 3 mps 727 mmHg 14%
    18:00 +40°C° 0 mm 2 mps 727 mmHg 14%
    19:00 +38°C° 0 mm 3 mps 727 mmHg 13%
    20:00 +37°C° 0 mm 3 mps 728 mmHg 13%
    21:00 +35°C° 0 mm 3 mps 728 mmHg 13%
    22:00 +34°C° 0 mm 2 mps 728 mmHg 13%
    23:00 +32°C° 0 mm 2 mps 728 mmHg 13%

    22 February, Thursday

    Time Temperature Precipitation Wind Pressure Humidity
    00:00 +31°C° 0 mm 2 mps 727 mmHg 14%
    01:00 +31°C° 0 mm 2 mps 727 mmHg 15%
    02:00 +30°C° 0 mm 1 mps 727 mmHg 16%
    03:00 +29°C° 0 mm 1 mps 727 mmHg 17%
    04:00 +29°C° 0 mm 2 mps 727 mmHg 19%
    05:00 +28°C° 0 mm 2 mps 727 mmHg 20%
    06:00 +28°C° 0 mm 2 mps 727 mmHg 22%
    07:00 +30°C° 0 mm 3 mps 728 mmHg 26%
    08:00 +33°C° 0 mm 4 mps 729 mmHg 30%
    09:00 +35°C° 0 mm 5 mps 729 mmHg 35%
    10:00 +36°C° 0 mm 5 mps 729 mmHg 31%
    11:00 +39°C° 0 mm 5 mps 729 mmHg 28%
    12:00 +41°C° 0 mm 5 mps 728 mmHg 25%
    13:00 +41°C° 0 mm 5 mps 727 mmHg 23%
    14:00 +42°C° 0 mm 4 mps 727 mmHg 21%
    15:00 +42°C° 0 mm 4 mps 726 mmHg 20%
    16:00 +42°C° 0 mm 3 mps 726 mmHg 20%
    17:00 +40°C° 0 mm 3 mps 726 mmHg 21%
    18:00 +39°C° 0 mm 2 mps 726 mmHg 22%
    19:00 +38°C° 0 mm 2 mps 727 mmHg 24%
    20:00 +38°C° 0 mm 2 mps 727 mmHg 25%
    21:00 +37°C° 0 mm 2 mps 728 mmHg 26%
    22:00 +37°C° 0.2 mm 2 mps 728 mmHg 28%
    23:00 +36°C° 0.2 mm 2 mps 727 mmHg 30%

    23 February, Friday

    Time Temperature Precipitation Wind Pressure Humidity
    00:00 +35°C° 0.2 mm 2 mps 727 mmHg 32%
    01:00 +35°C° 0.2 mm 2 mps 727 mmHg 35%
    02:00 +34°C° 0.2 mm 2 mps 727 mmHg 37%
    03:00 +34°C° 0.2 mm 3 mps 727 mmHg 39%
    04:00 +33°C° 0.6 mm 3 mps 727 mmHg 43%
    05:00 +32°C° 0.6 mm 4 mps 728 mmHg 46%
    06:00 +30°C° 0.6 mm 4 mps 728 mmHg 50%
    07:00 +32°C° 0.1 mm 5 mps 728 mmHg 49%
    08:00 +33°C° 0.1 mm 6 mps 729 mmHg 49%
    09:00 +34°C° 0.1 mm 6 mps 729 mmHg 48%
    10:00 +36°C° 0 mm 6 mps 729 mmHg 42%
    11:00 +39°C° 0 mm 6 mps 729 mmHg 36%
    12:00 +40°C° 0 mm 5 mps 728 mmHg 30%
    13:00 +40°C° 0 mm 5 mps 728 mmHg 30%
    14:00 +40°C° 0 mm 4 mps 727 mmHg 29%
    15:00 +40°C° 0 mm 4 mps 727 mmHg 28%
    16:00 +40°C° 0.2 mm 4 mps 727 mmHg 30%
    17:00 +38°C° 0.2 mm 4 mps 727 mmHg 31%
    18:00 +37°C° 0.2 mm 4 mps 728 mmHg 33%
    19:00 +37°C° 0.2 mm 4 mps 728 mmHg 35%
    20:00 +36°C° 0.2 mm 3 mps 728 mmHg 38%
    21:00 +35°C° 0.2 mm 3 mps 729 mmHg 40%
    22:00 +34°C° 0.1 mm 3 mps 729 mmHg 41%
    23:00 +34°C° 0.1 mm 2 mps 729 mmHg 42%
    Show more